TimeEST,TemperatureF,Dew PointF,Humidity,Sea Level PressureIn,VisibilityMPH,Wind Direction,Wind SpeedMPH,Gust SpeedMPH,PrecipitationIn,Events,Conditions,WindDirDegrees,DateUTC
12:53 AM,50.0,44.1,80,30.10,10.0,ENE,4.6,-,N/A,,Overcast,70,2013-01-03 05:53:00
1:53 AM,50.0,44.1,80,30.10,10.0,East,3.5,-,N/A,,Overcast,80,2013-01-03 06:53:00
2:53 AM,50.0,45.0,83,30.12,10.0,ENE,3.5,-,N/A,,Overcast,60,2013-01-03 07:53:00
3:53 AM,50.0,45.0,83,30.12,10.0,Calm,Calm,-,N/A,,Overcast,0,2013-01-03 08:53:00
4:53 AM,48.9,45.0,86,30.12,10.0,Calm,Calm,-,0.00,Rain,Light Rain,0,2013-01-03 09:53:00
5:41 AM,48.2,46.4,93,30.13,9.0,Calm,Calm,-,0.01,Rain,Light Rain,0,2013-01-03 10:41:00
5:53 AM,48.9,46.0,90,30.13,8.0,Calm,Calm,-,0.01,Rain,Light Rain,0,2013-01-03 10:53:00
6:53 AM,48.9,46.0,90,30.15,8.0,Calm,Calm,-,0.00,,Overcast,0,2013-01-03 11:53:00
7:53 AM,48.9,46.9,93,30.16,5.0,Calm,Calm,-,0.02,Rain,Light Rain,0,2013-01-03 12:53:00
8:05 AM,48.2,46.4,93,30.16,6.0,Calm,Calm,-,0.00,Rain,Light Rain,0,2013-01-03 13:05:00
8:53 AM,50.0,46.0,86,30.17,6.0,Calm,Calm,-,0.01,Rain,Light Rain,0,2013-01-03 13:53:00
9:53 AM,50.0,46.9,89,30.18,6.0,ENE,4.6,-,0.02,Rain,Light Rain,60,2013-01-03 14:53:00
10:25 AM,50.0,46.4,87,30.19,6.0,Calm,Calm,-,0.01,Rain,Light Rain,0,2013-01-03 15:25:00
10:53 AM,50.0,46.9,89,30.19,7.0,Calm,Calm,-,0.02,Rain,Light Rain,0,2013-01-03 15:53:00
11:01 AM,50.0,46.4,87,30.18,6.0,ESE,3.5,-,0.00,Rain,Light Rain,110,2013-01-03 16:01:00
11:12 AM,50.0,46.4,87,30.19,6.0,Calm,Calm,-,0.00,Rain,Light Rain,0,2013-01-03 16:12:00
11:34 AM,50.0,48.2,94,30.19,5.0,Calm,Calm,-,0.01,Rain,Light Rain,0,2013-01-03 16:34:00
11:53 AM,50.0,46.9,89,30.19,7.0,Calm,Calm,-,0.01,Rain,Light Rain,0,2013-01-03 16:53:00
12:27 PM,51.8,48.2,88,30.16,8.0,SSE,3.5,-,0.00,,Overcast,150,2013-01-03 17:27:00
12:53 PM,51.1,48.0,89,30.15,10.0,South,4.6,-,0.00,,Overcast,180,2013-01-03 17:53:00
1:42 PM,51.8,48.2,88,30.14,10.0,Variable,3.5,-,N/A,,Overcast,0,2013-01-03 18:42:00
1:53 PM,52.0,46.0,80,30.14,10.0,West,4.6,-,N/A,,Overcast,260,2013-01-03 18:53:00
2:53 PM,52.0,45.0,77,30.14,10.0,Calm,Calm,-,N/A,,Overcast,0,2013-01-03 19:53:00
3:53 PM,52.0,45.0,77,30.14,10.0,Calm,Calm,-,N/A,,Mostly Cloudy,0,2013-01-03 20:53:00
4:53 PM,51.1,45.0,80,30.16,10.0,West,3.5,-,N/A,,Scattered Clouds,280,2013-01-03 21:53:00
5:53 PM,50.0,45.0,83,30.18,10.0,Calm,Calm,-,N/A,,Partly Cloudy,0,2013-01-03 22:53:00
6:10 PM,50.0,44.6,82,30.20,10.0,Calm,Calm,-,N/A,,Mostly Cloudy,0,2013-01-03 23:10:00
7:53 PM,48.0,44.1,86,30.25,6.0,NNE,10.4,-,N/A,,Overcast,20,2013-01-04 00:53:00
8:28 PM,46.4,42.8,87,30.26,7.0,NE,8.1,-,N/A,,Overcast,50,2013-01-04 01:28:00
8:53 PM,46.9,43.0,86,30.26,7.0,NNE,5.8,-,N/A,,Overcast,30,2013-01-04 01:53:00
9:53 PM,46.0,41.0,83,30.27,9.0,NE,8.1,-,N/A,,Mostly Cloudy,40,2013-01-04 02:53:00
10:05 PM,46.4,41.0,81,30.27,8.0,NE,3.5,-,N/A,,Mostly Cloudy,40,2013-01-04 03:05:00
10:53 PM,46.0,41.0,83,30.28,8.0,Calm,Calm,-,N/A,,Overcast,0,2013-01-04 03:53:00
11:53 PM,46.0,42.1,86,30.28,6.0,ENE,3.5,-,N/A,,Overcast,60,2013-01-04 04:53:00